Showing default

CONNECTA T3.1, 58256

Orbit data source: Space-Track

CONNECTA T3.1, 58256 is a payload satellite owned by Plan-S (TR) in SSO that was launched on Sat, 11 Nov 2023 UTC via an FALCON 9 launch vehicle from the Air Force Western Test Range (AFWTR). Payload-class satellites include a variety of spacecraft equipped with specific instruments for various scientific and technological missions. These include communications satellites like Starlink; space stations such as the ISS; scientific satellites like the Hubble; Earth observation satellites from companies like Planet Labs, Umbra, and HawkEye 360; GPS; miniature CubeSats for education and research; and military/defense satellites.

Not visible in the next 10 days
Identifier
58256, 2023-174A
Orbit
SSO
Last TLE update
18 hours ago
Origin
Manufacturer
Plan-S
Mission
Operational Commercial Communications
Bus & Motor
CUBESAT 3U, Unknown motor
Mass
5 kg wet, 5 kg dry
Launch date (UTC)
2023-11-11 (2 years ago)
Launch vehicle
FALCON 9
Launch site
Air Force Western Test Range (AFWTR)
Object type
Payload
Rocket body
Debris
Shape & HBR
Box + 2 Pan, 0.3 m
Radar Cross Section
0.080 m², Small (<0.1 m²)

Expand to show TLE details & history

TLE from 18 hours ago
0 CONNECTA T3.1
1 58256U 23174A   25186.22848786  .00052628  00000-0  85200-3 0  9991
2 58256  97.4049 268.8713 0002424 336.2397  23.8744 15.52645849 92414
Epoch: 2025-07-05T05:29Z
TLE epoch observation values (Epoch: 2025-07-05T05:29:01.351Z)
Latitude
0.00005°
Longitude
-96.85388°
Altitude
410.634 km
Speed
7.665 km/s
True Right ascension
17h 55m 29s
True Declination
0° 00' 00"
Sunlit
Object was in full shadow at epoch
Visualization orbit readout
Latitude
-73.07423°
Longitude
-70.93838°
Altitude
434.543 km
Speed
7.65 km/s
Apparent Right ascension
22h 34m 28s
Apparent Declination
-59° 51' 22"
Sunlit
Object is in full shadow
Visualization observer readout
Local Sidereal Time
11:39:48
Azimuth
158.254° S
Elevation
-67.594°
Doppler factor
1
Orbital elements
Apogee altitude
407.571 km
Perigee altitude
404.282 km
Semi-major axis
6,784.064 km
Eccentricity
0.00024
Inclination
97.4049°
RAAN
268.8713°
Arg. of periapsis
336.2397°
True anomaly
Unknown
Mean anomaly
23.8744°
Eccentric anomaly
Unknown
Mean motion
3.88426 °/min
Orbital period
92.68 mins
BSTAR
0.000852
Loading maneuver chart data...
Loading SW <> Apogee altitude chart data...
Loading historical data...
Loading historical data...
Loading historical data...
Loading historical data...
Loading historical data...
Loading historical data...
Loading historical data...

CONNECTA T3.1 Visibility

Observer location: undefined°, undefined°

CONNECTA T3.1 is likely not visible in the next few days
Span
Click to sort rows by Start time (UTC) header in descending order
Start Az.
Max El. time (UTC)
Max El. Az.
Max El.
End time (UTC)
End Az.
|